Le Mars, IA

12:12 AM CDT on September 29, 2016 (GMT -0500)
Le Mars Municipal

Weather History for KLRJ - February, 2014

Change the Weather History Date:

Tuesday, February 11, 2014

  Actual Average Record
Temperature  
Mean Temperature 12 °F -  
Max Temperature 21 °F 31 °F 63 °F (1977)
Min Temperature 3 °F 9 °F -23 °F (1988)
Degree Days  
Heating Degree Days 53    
Moisture  
Dew Point 6 °F    
Average Humidity 72    
Maximum Humidity 79    
Minimum Humidity 62    
Precipitation  
Precipitation 0.00 in - - ()
Sea Level Pressure  
Sea Level Pressure 30.21 in    
Wind  
Wind Speed 11 mph (South)    
Max Wind Speed 24 mph    
Max Gust Speed 34 mph    
Visibility 10 miles    
Events      
Averages and records for this station are not official NWS values.
T = Trace of Precipitation, MM = Missing Value Source: NWS Daily Summary

Daily Weather History Graph

Daily Weather History Graph

Search for Another Location

Airport or City:

Trip Planner

Search our weather history database for the weather conditions in past years. The results will help you decide how hot, cold, wet, or windy it might be!

Date:

Astronomy

Feb. 11, 2014 Rise Set
Actual Time 7:27 AM CST 5:51 PM CST
Civil Twilight 6:58 AM CST 6:20 PM CST
Nautical Twilight 6:24 AM CST 6:53 PM CST
Astronomical Twilight 5:51 AM CST 7:26 PM CST
Moon 3:10 PM CST (2/11) 5:07 AM CST (2/11)
Length of Visible Light 11h 22m
Length of Day
10h 24m
Waxing Gibbous, 91% of the Moon is Illuminated
Feb 11
Waxing Gibbous
Feb 14
Full
Feb 22
Last Quarter
Mar 1
New
Mar 8
First Quarter

Hourly Weather History & Observations

Time (CST) Temp. Windchill Dew Point Humidity Pressure Visibility Wind Dir Wind Speed Gust Speed Precip Events Conditions
12:15 AM 3.2 °F -4.2 °F -4.0 °F 72% 30.44 in 10.0 mi SSE 3.5 mph - N/A   Overcast
12:35 AM 3.2 °F -7.8 °F -4.0 °F 72% 30.43 in 10.0 mi SSE 5.8 mph - N/A   Overcast
12:55 AM 3.2 °F -6.2 °F -2.2 °F 78% 30.42 in 10.0 mi SE 4.6 mph - N/A   Overcast
1:15 AM 3.2 °F -4.2 °F -2.2 °F 78% 30.42 in 10.0 mi SE 3.5 mph - N/A   Overcast
1:35 AM 3.2 °F -4.2 °F -2.2 °F 78% 30.41 in 10.0 mi SE 3.5 mph - N/A   Overcast
1:55 AM 5.0 °F -5.6 °F -2.2 °F 72% 30.41 in 10.0 mi SSE 5.8 mph - N/A   Overcast
2:15 AM 5.0 °F -6.9 °F -2.2 °F 72% 30.41 in 10.0 mi SSE 6.9 mph - N/A   Overcast
2:35 AM 5.0 °F -5.6 °F -2.2 °F 72% 30.40 in 10.0 mi SSE 5.8 mph - N/A   Overcast
2:55 AM 5.0 °F -5.6 °F -2.2 °F 72% 30.40 in 10.0 mi SSE 5.8 mph - N/A   Overcast
3:15 AM 5.0 °F -6.9 °F -0.4 °F 78% 30.40 in 10.0 mi SSE 6.9 mph - N/A   Overcast
3:35 AM 5.0 °F -5.6 °F -2.2 °F 72% 30.39 in 10.0 mi SSE 5.8 mph - N/A   Overcast
3:55 AM 5.0 °F -5.6 °F -0.4 °F 78% 30.38 in 10.0 mi SSE 5.8 mph - N/A   Overcast
4:15 AM 5.0 °F -4.1 °F -0.4 °F 78% 30.37 in 10.0 mi SSE 4.6 mph - N/A   Overcast
4:35 AM 6.8 °F -3.5 °F 1.4 °F 79% 30.37 in 10.0 mi SSE 5.8 mph - N/A   Overcast
4:55 AM 6.8 °F -4.8 °F 1.4 °F 79% 30.36 in - South 6.9 mph - N/A   Overcast
5:15 AM 6.8 °F -2.0 °F 1.4 °F 79% 30.36 in 10.0 mi SSE 4.6 mph - N/A   Overcast
5:35 AM 8.6 °F -2.6 °F 3.2 °F 79% 30.36 in 10.0 mi SSE 6.9 mph - N/A   Overcast
5:55 AM 8.6 °F -3.7 °F 3.2 °F 79% 30.35 in 10.0 mi South 8.1 mph - N/A   Overcast
6:15 AM 8.6 °F -4.7 °F 1.4 °F 73% 30.35 in 10.0 mi SSE 9.2 mph - N/A   Overcast
6:35 AM 8.6 °F -7.0 °F 3.2 °F 79% 30.35 in 10.0 mi South 12.7 mph - N/A   Overcast
6:55 AM 8.6 °F -5.5 °F 3.2 °F 79% 30.35 in 10.0 mi South 10.4 mph - N/A   Overcast
7:15 AM 8.6 °F -7.7 °F 1.4 °F 73% 30.34 in 10.0 mi South 13.8 mph - N/A   Overcast
7:35 AM 8.6 °F -7.0 °F 1.4 °F 73% 30.34 in 10.0 mi South 12.7 mph - N/A   Overcast
7:55 AM 8.6 °F -6.3 °F 1.4 °F 73% 30.33 in 10.0 mi South 11.5 mph 18.4 mph N/A   Overcast
8:15 AM 8.6 °F -9.5 °F 1.4 °F 73% 30.31 in 10.0 mi South 17.3 mph - N/A   Overcast
8:35 AM 8.6 °F -10.5 °F 1.4 °F 73% 30.31 in 10.0 mi South 19.6 mph 26.5 mph N/A   Overcast
8:55 AM 10.4 °F -6.6 °F 3.2 °F 73% 30.31 in 10.0 mi South 16.1 mph 26.5 mph N/A   Overcast
9:15 AM 10.4 °F -7.7 °F 3.2 °F 73% 30.30 in 10.0 mi South 18.4 mph 26.5 mph N/A   Overcast
9:35 AM 10.4 °F -8.6 °F 3.2 °F 73% 30.29 in 10.0 mi South 20.7 mph 31.1 mph N/A   Overcast
9:55 AM 12.2 °F -7.5 °F 3.2 °F 67% 30.29 in 10.0 mi South 24.2 mph - N/A   Overcast
10:15 AM 12.2 °F -5.3 °F 3.2 °F 67% 30.28 in 10.0 mi South 18.4 mph 27.6 mph N/A   Overcast
10:35 AM 14.0 °F -3.4 °F 5.0 °F 67% 30.29 in 10.0 mi South 19.6 mph 27.6 mph N/A   Overcast
10:55 AM 14.0 °F -4.7 °F 3.2 °F 62% 30.28 in 10.0 mi South 23.0 mph 32.2 mph N/A   Overcast
11:15 AM 14.0 °F -3.4 °F 5.0 °F 67% 30.27 in 10.0 mi South 19.6 mph - N/A   Overcast
11:35 AM 14.0 °F -3.0 °F 5.0 °F 67% 30.26 in 10.0 mi South 18.4 mph 25.3 mph N/A   Overcast
11:55 AM 15.8 °F -0.2 °F 5.0 °F 62% 30.24 in 10.0 mi South 17.3 mph 29.9 mph N/A   Overcast
12:15 PM 15.8 °F -2.3 °F 6.8 °F 68% 30.22 in 10.0 mi South 23.0 mph - N/A   Overcast
12:35 PM 15.8 °F -1.1 °F 6.8 °F 68% 30.21 in 10.0 mi South 19.6 mph 26.5 mph N/A   Overcast
12:55 PM 17.6 °F 1.7 °F 6.8 °F 63% 30.19 in 10.0 mi South 18.4 mph 28.8 mph N/A   Overcast
1:15 PM 17.6 °F 0.5 °F 6.8 °F 63% 30.17 in 10.0 mi South 21.9 mph 29.9 mph N/A   Overcast
1:35 PM 17.6 °F 0.9 °F 8.6 °F 68% 30.15 in 10.0 mi South 20.7 mph 28.8 mph N/A   Overcast
1:55 PM 17.6 °F 0.9 °F 8.6 °F 68% 30.13 in 10.0 mi South 20.7 mph 28.8 mph N/A   Overcast
2:15 PM 19.4 °F 2.5 °F 8.6 °F 63% 30.11 in 10.0 mi South 23.0 mph - N/A   Overcast
2:35 PM 19.4 °F 3.2 °F 10.4 °F 68% 30.10 in 10.0 mi South 20.7 mph 31.1 mph N/A   Overcast
2:55 PM 19.4 °F 3.2 °F 10.4 °F 68% 30.09 in 10.0 mi South 20.7 mph 34.5 mph N/A   Overcast
3:15 PM 21.2 °F 6.0 °F 10.4 °F 63% 30.08 in 10.0 mi South 19.6 mph 31.1 mph N/A   Overcast
3:35 PM 21.2 °F 4.5 °F 10.4 °F 63% 30.08 in 10.0 mi South 24.2 mph - N/A   Overcast
3:55 PM 21.2 °F 5.6 °F 10.4 °F 63% 30.08 in 10.0 mi South 20.7 mph 28.8 mph N/A   Overcast
4:15 PM 21.2 °F 4.9 °F 10.4 °F 63% 30.07 in 10.0 mi South 23.0 mph 31.1 mph N/A   Overcast
4:35 PM 21.2 °F 6.0 °F 10.4 °F 63% 30.06 in 10.0 mi South 19.6 mph 29.9 mph N/A   Overcast
4:55 PM 19.4 °F 3.6 °F 12.2 °F 74% 30.05 in 10.0 mi South 19.6 mph 28.8 mph N/A   Overcast
5:15 PM 21.2 °F 4.5 °F 12.2 °F 68% 30.04 in 10.0 mi South 24.2 mph 31.1 mph N/A   Overcast
5:35 PM 19.4 °F 4.5 °F 12.2 °F 74% 30.04 in 10.0 mi South 17.3 mph 24.2 mph N/A   Overcast
5:55 PM 19.4 °F 4.5 °F 12.2 °F 74% 30.03 in 10.0 mi South 17.3 mph 26.5 mph N/A   Overcast
6:15 PM 19.4 °F 3.6 °F 12.2 °F 74% 30.03 in 10.0 mi South 19.6 mph 26.5 mph N/A   Overcast
6:35 PM 19.4 °F 4.5 °F 12.2 °F 74% 30.04 in 10.0 mi South 17.3 mph - N/A   Overcast
6:55 PM 19.4 °F 6.0 °F 10.4 °F 68% 30.04 in 10.0 mi South 13.8 mph - N/A   Mostly Cloudy
7:15 PM 17.6 °F 2.7 °F 10.4 °F 73% 30.03 in 10.0 mi South 16.1 mph - N/A   Partly Cloudy
7:35 PM 17.6 °F 3.7 °F 10.4 °F 73% 30.03 in 10.0 mi South 13.8 mph - N/A   Mostly Cloudy
7:55 PM 17.6 °F 3.2 °F 12.2 °F 79% 30.03 in 10.0 mi South 15.0 mph - N/A   Overcast
8:15 PM 19.4 °F 5.5 °F 12.2 °F 74% 30.02 in 10.0 mi South 15.0 mph 20.7 mph N/A   Overcast
8:35 PM 19.4 °F 6.6 °F 12.2 °F 74% 30.02 in 10.0 mi South 12.7 mph - N/A   Overcast
8:55 PM 19.4 °F 5.0 °F 12.2 °F 74% 30.02 in 10.0 mi South 16.1 mph - N/A   Overcast
9:15 PM 19.4 °F 2.8 °F 12.2 °F 74% 30.01 in 10.0 mi South 21.9 mph - N/A   Overcast
9:35 PM 19.4 °F 4.1 °F 12.2 °F 74% 30.02 in 10.0 mi South 18.4 mph 26.5 mph N/A   Overcast
9:55 PM 19.4 °F 5.5 °F 12.2 °F 74% 30.03 in 10.0 mi South 15.0 mph - N/A   Overcast
10:15 PM 17.6 °F 3.2 °F 12.2 °F 79% 30.02 in 10.0 mi South 15.0 mph 21.9 mph N/A   Overcast
10:35 PM 17.6 °F 3.7 °F 12.2 °F 79% 30.01 in 10.0 mi South 13.8 mph 21.9 mph N/A   Overcast
10:55 PM 19.4 °F 4.5 °F 12.2 °F 74% 30.01 in 10.0 mi South 17.3 mph 24.2 mph N/A   Overcast
11:15 PM 19.4 °F 5.0 °F 12.2 °F 74% 30.00 in 10.0 mi South 16.1 mph - N/A   Overcast
11:35 PM 19.4 °F 4.5 °F 12.2 °F 74% 29.99 in 10.0 mi South 17.3 mph 24.2 mph N/A   Overcast
11:55 PM 19.4 °F 5.0 °F 12.2 °F 74% 29.98 in 10.0 mi South 16.1 mph 26.5 mph N/A   Overcast